Myrtle Beach, SC

9:13 AM EST on February 25, 2017 (GMT -0500)
Myrtle Beach International

Weather History for KMYR - November, 2012

Change the Weather History Date:

Saturday, November 24, 2012

  Actual Average Record
Temperature  
Mean Temperature 46 °F -  
Max Temperature 57 °F 62 °F 76 °F (1993)
Min Temperature 35 °F 42 °F 28 °F (1989)
Degree Days  
Heating Degree Days 19    
Moisture  
Dew Point 36 °F    
Average Humidity 63    
Maximum Humidity 81    
Minimum Humidity 33    
Precipitation  
Precipitation 0.00 in - - ()
Sea Level Pressure  
Sea Level Pressure 29.98 in    
Wind  
Wind Speed 11 mph (NW)    
Max Wind Speed 20 mph    
Max Gust Speed 23 mph    
Visibility 10 miles    
Events      
Averages and records for this station are not official NWS values.
T = Trace of Precipitation, MM = Missing Value Source: NWS Daily Summary

Daily Weather History Graph

Daily Weather History Graph

Search for Another Location

Airport or City:

Trip Planner

Search our weather history database for the weather conditions in past years. The results will help you decide how hot, cold, wet, or windy it might be!

Date:

Astronomy

Nov. 24, 2012 Rise Set
Actual Time 6:56 AM EST 5:08 PM EST
Civil Twilight 6:29 AM EST 5:35 PM EST
Nautical Twilight 5:58 AM EST 6:05 PM EST
Astronomical Twilight 5:29 AM EST 6:35 PM EST
Moon 2:45 PM EST (11/24) 3:19 AM EST (11/24)
Length of Visible Light 11h 06m
Length of Day
10h 12m
Waxing Gibbous, 87% of the Moon is Illuminated
Nov 24
Waxing Gibbous
Nov 28
Full
Dec 6
Last Quarter
Dec 13
New
Dec 20
First Quarter

Hourly Weather History & Observations

Time (EST) Temp. Windchill Dew Point Humidity Pressure Visibility Wind Dir Wind Speed Gust Speed Precip Events Conditions
12:15 AM 57.2 °F - 44.6 °F 63% 29.90 in 10.0 mi WSW 13.8 mph 19.6 mph N/A   Clear
12:35 AM 55.4 °F - 44.6 °F 67% 29.90 in 10.0 mi West 10.4 mph - N/A   Clear
12:55 AM 55.4 °F - 44.6 °F 67% 29.90 in 10.0 mi West 12.7 mph - N/A   Clear
1:15 AM 53.6 °F - 44.6 °F 72% 29.89 in 10.0 mi West 10.4 mph - N/A   Clear
1:35 AM 53.6 °F - 44.6 °F 72% 29.90 in 10.0 mi West 10.4 mph - N/A   Clear
1:55 AM 51.8 °F - 44.6 °F 76% 29.90 in 10.0 mi West 8.1 mph - N/A   Clear
2:15 AM 51.8 °F - 44.6 °F 76% 29.90 in 10.0 mi West 8.1 mph - N/A   Clear
2:35 AM 51.8 °F - 44.6 °F 76% 29.91 in 10.0 mi WNW 9.2 mph - N/A   Clear
2:55 AM 51.8 °F - 44.6 °F 76% 29.90 in 10.0 mi NW 9.2 mph - N/A   Clear
3:15 AM 51.8 °F - 42.8 °F 71% 29.91 in 10.0 mi WNW 10.4 mph - N/A   Clear
3:35 AM 51.8 °F - 42.8 °F 71% 29.91 in 10.0 mi NW 9.2 mph - N/A   Mostly Cloudy
3:55 AM 51.8 °F - 39.2 °F 62% 29.92 in 10.0 mi NW 9.2 mph 16.1 mph N/A   Scattered Clouds
4:15 AM 51.8 °F - 39.2 °F 62% 29.93 in 10.0 mi NW 8.1 mph - N/A   Scattered Clouds
4:35 AM 50.0 °F - 39.2 °F 66% 29.93 in 10.0 mi NW 9.2 mph - N/A   Mostly Cloudy
4:55 AM 50.0 °F - 39.2 °F 66% 29.94 in 10.0 mi NW 8.1 mph - N/A   Partly Cloudy
5:15 AM 48.2 °F - 37.4 °F 66% 29.95 in 10.0 mi NW 8.1 mph - N/A   Clear
5:35 AM 46.4 °F 42.9 °F 37.4 °F 71% 29.95 in 10.0 mi NW 6.9 mph - N/A   Clear
5:50 AM 46.4 °F 41.9 °F 37.4 °F 71% 29.96 in 10.0 mi NW 9.2 mph - N/A   Clear
5:55 AM 46.4 °F 42.4 °F 37.4 °F 71% 29.97 in 10.0 mi WNW 8.1 mph - N/A   Clear
6:45 AM 44.6 °F 39.7 °F 37.4 °F 76% 29.98 in 10.0 mi NNW 9.2 mph - N/A   Clear
8:45 AM 50.0 °F - 32.0 °F 50% 30.02 in 10.0 mi North 17.3 mph - N/A   Clear
9:50 AM 51.8 °F - 30.2 °F 44% 30.02 in 10.0 mi North 19.6 mph - N/A   Clear
10:45 AM 53.6 °F - 30.2 °F 41% 30.03 in 10.0 mi NNW 17.3 mph 23.0 mph N/A   Clear
11:45 AM 55.4 °F - 30.2 °F 38% 30.00 in 10.0 mi North 17.3 mph - N/A   Clear
12:45 PM 55.4 °F - 30.2 °F 38% 29.98 in 10.0 mi North 17.3 mph - N/A   Clear
1:45 PM 57.2 °F - 28.4 °F 33% 29.97 in 10.0 mi NW 11.5 mph 17.3 mph N/A   Clear
2:50 PM 57.2 °F - 30.2 °F 36% 29.96 in 10.0 mi WNW 13.8 mph - N/A   Clear
3:50 PM 57.2 °F - 28.4 °F 33% 29.97 in 10.0 mi WNW 11.5 mph - N/A   Clear
4:45 PM 53.6 °F - 28.4 °F 38% 29.99 in 10.0 mi NNW 11.5 mph 23.0 mph N/A   Clear
6:50 PM 44.6 °F 40.2 °F 30.2 °F 57% 30.05 in 10.0 mi North 8.1 mph - N/A   Clear
7:45 PM 37.4 °F 34.9 °F 30.2 °F 75% 30.07 in 10.0 mi North 3.5 mph - N/A   Clear
8:50 PM 37.4 °F - 30.2 °F 75% 30.08 in 10.0 mi Calm Calm - N/A   Clear
9:50 PM 37.4 °F 32.1 °F 30.2 °F 75% 30.09 in 10.0 mi North 6.9 mph - N/A   Clear
10:55 PM 37.4 °F 32.8 °F 26.6 °F 65% 30.11 in 10.0 mi North 5.8 mph - N/A   Clear
11:15 PM 37.4 °F 31.4 °F 26.6 °F 65% 30.11 in 10.0 mi North 8.1 mph - N/A   Clear
11:35 PM 35.6 °F 28.0 °F 28.4 °F 75% 30.11 in 10.0 mi North 10.4 mph - N/A   Clear
11:55 PM 35.6 °F 27.5 °F 30.2 °F 81% 30.11 in 10.0 mi North 11.5 mph - N/A   Clear